Regional Weather Roundup
Issued by NWS

Home | Current Version | Previous Version | Text Only | Print | Product List | Glossary On
Versions: 1 2 3 4 5 6 7 8 9 10 11 12 13 14 15 16 17 18 19 20 21 22 23 24 25 26 27 28 29 30 31 32 33 34 35 36 37 38 39 40 41 42 43 44 45 46 47 48 49 50
504
ASUS44 KJAN 230010
RWRMS

MISSISSIPPI HOURLY WEATHER ROUNDUP
NATIONAL WEATHER SERVICE JACKSON MS
700 PM CDT WED MAR 22 2017

NOTE: "FAIR: INDICATES FEW OR NO CLOUDS BELOW 12,000 FEET WITH NO
SIGNIFICANT WEATHER AND/OR OBSTRUCTIONS TO VISIBILITY.

MSZ001>002-007>008-010>013-018>021-025>028-034>036-230100-
NORTHWEST MISSISSIPPI

CITY           SKY/WX    TMP DP  RH WIND       PRES   REMARKS
BATESVILLE     FAIR      63  42  47 NE3       30.24R
CLARKSDALE     CLEAR     64  45  48 NE12      30.23R
CLEVELAND      FAIR      67  50  54 N9        30.20R
GREENWOOD      CLEAR     69  47  45 NE12      30.19R
6HR MIN TEMP:  69; 6HR MAX TEMP:  76;

GREENVILLE     CLEAR     69  49  48 NE12      30.18R
6HR MIN TEMP:  64; 6HR MAX TEMP:  72;

OLIVE BRANCH   PTCLDY   N/A N/A N/A N9        30.24S
OXFORD         FAIR      59  41  51 E6        30.25R
TUNICA         CLEAR     59  39  47 NE8       30.25R
WINONA         FAIR      66  49  55 NE7       30.20R
$$

MSZ003>006-009-014>017-022>024-029>033-037>039-230100-
NORTHEAST MISSISSIPPI

CITY           SKY/WX    TMP DP  RH WIND       PRES   REMARKS
COLUMBUS AFB   CLEAR     67  43  40 N8        30.20R
6HR MIN TEMP:  67; 6HR MAX TEMP:  71;

CORINTH        FAIR      59  28  31 N8        30.25R
GOLDN TRIANGLE CLEAR     66  45  45 N7        30.16R
STARKVILLE     FAIR      66  46  48 NE6       30.21R
TUPELO         CLEAR     64  36  35 NE8       30.23R
6HR MIN TEMP:  60; 6HR MAX TEMP:  67;

$$

MSZ040-058-230100-
CENTRAL MISSISSIPPI

CITY           SKY/WX    TMP DP  RH WIND       PRES   REMARKS
JACKSON INTL   CLEAR     75  57  53 N6        30.13R
6HR MIN TEMP:  73; 6HR MAX TEMP:  82;

JACKSON HAWKNS CLEAR     77  56  48 CALM      30.14R
6HR MIN TEMP:  74; 6HR MAX TEMP:  80;

MADISON        FAIR      73  55  53 CALM      30.13S
MERIDIAN KEY   CLEAR     74  54  49 NE12      30.15R
6HR MIN TEMP:  74; 6HR MAX TEMP:  82;

MERIDIAN NAS   PTCLDY    73  51  46 N7        30.17R
6HR MIN TEMP:  73; 6HR MAX TEMP:  80;

RAYMOND        FAIR      75  57  53 N5        30.13R
VICKSBURG VKS  CLEAR     73  55  53 N6        30.12R
$$

MSZ059>079-230100-
SOUTH MISSISSIPPI

CITY           SKY/WX    TMP DP  RH WIND       PRES   REMARKS
BROOKHAVEN     FAIR      79  55  44 CALM      30.14R
COLUMBIA       FAIR      73 -36   1 CALM      30.13S
HATTIESBURG    PTCLDY    80  54  40 NW5       30.10S
6HR MIN TEMP:  80; 6HR MAX TEMP:  85;

MCCOMB         CLEAR     79  54  41 W3        30.12R
6HR MIN TEMP:  79; 6HR MAX TEMP:  86;

NATCHEZ        CLEAR     77  54  44 NW3       30.13R
6HR MIN TEMP:  75; 6HR MAX TEMP:  81;

PINE BELT      PTCLDY    79  55  44 NW5       30.13R
6HR MIN TEMP:  79; 6HR MAX TEMP:  86;

$$

MSZ080>082-230100-
COASTAL MISSISSIPPI

CITY           SKY/WX    TMP DP  RH WIND       PRES   REMARKS
BAY ST LOUIS   CLEAR     75  61  60 SW7       30.10R
BILOXI         PTCLDY    73  66  79 SW12      30.09R
6HR MIN TEMP:  73; 6HR MAX TEMP:  85;

PASCAGOULA     PTCLDY    74  62  66 SW5       30.09R
6HR MIN TEMP:  74; 6HR MAX TEMP:  89;

GULFPORT       PTCLDY    77  65  66 SW6       30.09R
6HR MIN TEMP:  77; 6HR MAX TEMP:  87;

$$

LAZ007>009-015>016-023>026-230100-
NORTHEAST LOUISIANA

CITY           SKY/WX    TMP DP  RH WIND       PRES   REMARKS
BASTROP        FAIR      69  52  55 NE5       30.17S
TALLULAH/VBURG CLEAR     73  53  49 N8        30.15R
6HR MIN TEMP:  73; 6HR MAX TEMP:  79;

VIDALIA        FAIR      80  52  38 CALM      30.11S
$$




USA.gov is the U.S. government's official web portal to all federal, state and local government web resources and services.